Weather History for Satu Mare, Romania

Change the Weather History Date:

Monday, February 24, 2014

  Actual Average Record
Temperature  
Mean Temperature 47 °F -  
Max Temperature 57 °F - - ()
Min Temperature 37 °F - - ()
Degree Days  
Heating Degree Days 18    
Moisture  
Dew Point 41 °F    
Average Humidity 83    
Maximum Humidity 100    
Minimum Humidity 48    
Precipitation  
Precipitation 0.00 in - - ()
Sea Level Pressure  
Sea Level Pressure 30.19 in    
Wind  
Wind Speed 4 mph ()    
Max Wind Speed 7 mph    
Max Gust Speed -    
Visibility 5.3 miles    
Events      
T = Trace of Precipitation, MM = Missing Value Source: Averaged Metar Reports

Daily Weather History Graph

Daily Weather History Graph

Search for Another Location

Airport:

Trip Planner

Search our weather history database for the weather conditions in past years. The results will help you decide how hot, cold, wet, or windy it might be!

Date:

Astronomy

Feb. 24, 2014 Rise Set
Actual Time 7:18 AM EET 6:05 PM EET
Civil Twilight 6:47 AM EET 6:36 PM EET
Nautical Twilight 6:12 AM EET 7:12 PM EET
Astronomical Twilight 5:36 AM EET 7:47 PM EET
Moon 3:12 AM EET (2/24) 12:33 PM EET (2/24)
Length of Visible Light 11h 48m
Length of Day
10h 46m
Waning Crescent, 31% of the Moon is Illuminated
Feb 24
Waning Crescent
Mar 1
New
Mar 8
First Quarter
Mar 16
Full
Mar 24
Last Quarter

Hourly Weather History & Observations

Time (EET) Temp. Windchill Dew Point Humidity Pressure Visibility Wind Dir Wind Speed Gust Speed Precip Events Conditions
12:00 AM 42.8 °F 38.6 °F 41.0 °F 93% 30.15 in 6.2 mi NNE 6.9 mph - N/A   Mostly Cloudy
1:00 AM 41.0 °F 38.0 °F 39.2 °F 93% 30.18 in 6.2 mi East 4.6 mph - N/A   Mostly Cloudy
2:00 AM 41.0 °F - 39.2 °F 93% 30.18 in 6.2 mi East 2.3 mph - N/A   Mostly Cloudy
3:00 AM 41.0 °F 38.0 °F 39.2 °F 93% 30.18 in 6.2 mi ENE 4.6 mph - N/A   Mostly Cloudy
4:00 AM 39.2 °F - 39.2 °F 100% 30.15 in 6.2 mi Calm Calm - N/A   Mostly Cloudy
5:00 AM 39.2 °F - 39.2 °F 100% 30.18 in - NNE 2.3 mph - N/A   Clear
5:30 AM 39.2 °F 35.9 °F 39.2 °F 100% 30.18 in - East 4.6 mph - N/A   Clear
6:00 AM 39.2 °F 35.9 °F 39.2 °F 100% 30.18 in - ENE 4.6 mph - N/A   Clear
6:30 AM 39.2 °F - 39.2 °F 100% 30.18 in - East 2.3 mph - N/A   Clear
7:00 AM 37.4 °F 33.8 °F 37.4 °F 100% 30.18 in - ESE 4.6 mph - N/A   Clear
7:30 AM 37.4 °F - 37.4 °F 100% 30.18 in - Calm Calm - N/A   Clear
8:00 AM 39.2 °F - 37.4 °F 93% 30.18 in - SE 2.3 mph - N/A   Clear
8:30 AM 41.0 °F - 39.2 °F 93% 30.21 in - Variable 2.3 mph - N/A   Clear
9:00 AM 44.6 °F 42.2 °F 42.8 °F 93% 30.21 in - East 4.6 mph - N/A   Clear
9:30 AM 46.4 °F 44.3 °F 46.4 °F 100% 30.21 in - East 4.6 mph - N/A   Clear
10:00 AM 48.2 °F - 46.4 °F 93% 30.21 in - East 4.6 mph - N/A   Clear
10:30 AM 50.0 °F - 42.8 °F 76% 30.21 in - ESE 6.9 mph - N/A   Clear
11:00 AM 51.8 °F - 42.8 °F 71% 30.21 in - SE 6.9 mph - N/A   Clear
11:30 AM 53.6 °F - 44.6 °F 72% 30.21 in - SSE 4.6 mph - N/A   Clear
12:00 PM 51.8 °F - 44.6 °F 76% 30.21 in - SE 6.9 mph - N/A   Clear
12:30 PM 51.8 °F - 39.2 °F 62% 30.21 in 6.2 mi SSE 6.9 mph - N/A   Partly Cloudy
1:00 PM 53.6 °F - 39.2 °F 58% 30.21 in 6.2 mi SE 4.6 mph - N/A   Partly Cloudy
1:30 PM 53.6 °F - 39.2 °F 58% 30.18 in 6.2 mi South 6.9 mph - N/A   Partly Cloudy
2:00 PM 55.4 °F - 39.2 °F 54% 30.18 in 6.2 mi SW 4.6 mph - N/A   Partly Cloudy
2:30 PM 55.4 °F - 39.2 °F 54% 30.18 in 6.2 mi Variable 2.3 mph - N/A   Partly Cloudy
3:00 PM 55.4 °F - 39.2 °F 54% 30.18 in 6.2 mi NW 4.6 mph - N/A   Partly Cloudy
3:30 PM 57.2 °F - 37.4 °F 48% 30.18 in 6.2 mi Variable 2.3 mph - N/A   Partly Cloudy
4:00 PM 55.4 °F - 39.2 °F 54% 30.18 in 6.2 mi Variable 2.3 mph - N/A   Scattered Clouds
4:30 PM 55.4 °F - 39.2 °F 54% 30.18 in 6.2 mi Variable 2.3 mph - N/A   Scattered Clouds
5:00 PM 53.6 °F - 41.0 °F 62% 30.18 in 6.2 mi NNW 4.6 mph - N/A   Scattered Clouds
5:30 PM 53.6 °F - 44.6 °F 72% 30.18 in 6.2 mi NNW 2.3 mph - N/A   Scattered Clouds
6:00 PM 50.0 °F - 44.6 °F 82% 30.18 in - WNW 4.6 mph - N/A   Clear
6:30 PM 48.2 °F - 44.6 °F 87% 30.18 in - WNW 6.9 mph - N/A   Clear
7:00 PM 46.4 °F 42.9 °F 44.6 °F 93% 30.18 in - West 6.9 mph - N/A   Clear
7:30 PM 44.6 °F 40.7 °F 44.6 °F 100% 30.18 in 6.2 mi West 6.9 mph - N/A   Scattered Clouds
8:00 PM 42.8 °F 38.6 °F 42.8 °F 100% 30.18 in 3.7 mi WSW 6.9 mph - N/A   Partly Cloudy
8:30 PM 42.8 °F 38.6 °F 42.8 °F 100% 30.18 in 2.5 mi WSW 6.9 mph - N/A   Partly Cloudy
9:00 PM 42.8 °F 40.1 °F 42.8 °F 100% 30.18 in 1.8 mi SW 4.6 mph - N/A   Scattered Clouds
10:00 PM 42.8 °F 40.1 °F 41.0 °F 93% 30.18 in 1.3 mi SW 4.6 mph - N/A   Mostly Cloudy
11:00 PM 41.0 °F 36.4 °F 41.0 °F 100% 30.18 in 0.8 mi WSW 6.9 mph - N/A   Mostly Cloudy